• In Russia
  • List of Countries
  • For 7 days
  • Water Temperature
  • Satellite Maps
  • Weather Map
  • Weather Widgets
  • user-avatar
    Login

    Hourly Weather Sankt Polten

    Today, 23 April, Sunday

    Time Temperature Precipitation Wind Pressure Humidity
    00:00 +3°C° 0.2 mm 3 mps 737 mmHg 96%
    01:00 +2°C° 0 mm 3 mps 737 mmHg 96%
    02:00 +2°C° 0.1 mm 3 mps 737 mmHg 96%
    03:00 +2°C° 0.1 mm 3 mps 737 mmHg 95%
    04:00 +1°C° 0.1 mm 4 mps 738 mmHg 95%
    05:00 +1°C° 0.1 mm 4 mps 738 mmHg 94%
    06:00 +1°C° 0.1 mm 4 mps 738 mmHg 93%
    07:00 +2°C° 0.1 mm 5 mps 738 mmHg 91%
    08:00 +3°C° 0.1 mm 5 mps 738 mmHg 87%
    09:00 +3°C° 0.1 mm 5 mps 739 mmHg 82%
    10:00 +4°C° 0.1 mm 6 mps 739 mmHg 78%
    11:00 +5°C° 0.1 mm 6 mps 739 mmHg 76%
    12:00 +5°C° 0.1 mm 6 mps 739 mmHg 73%
    13:00 +7°C° 0.1 mm 6 mps 738 mmHg 71%
    14:00 +7°C° 0.1 mm 6 mps 738 mmHg 72%
    15:00 +7°C° 0.1 mm 5 mps 738 mmHg 73%
    16:00 +7°C° 0.1 mm 5 mps 738 mmHg 73%
    17:00 +6°C° 0.1 mm 4 mps 739 mmHg 78%
    18:00 +5°C° 0.1 mm 4 mps 739 mmHg 83%
    19:00 +3°C° 0.1 mm 3 mps 739 mmHg 88%
    20:00 +3°C° 0 mm 3 mps 740 mmHg 89%
    21:00 +4°C° 0 mm 2 mps 740 mmHg 89%
    22:00 +3°C° 0 mm 2 mps 741 mmHg 90%
    23:00 +2°C° 0 mm 2 mps 741 mmHg 91%

    Tomorrow, 24 April, Monday

    Time Temperature Precipitation Wind Pressure Humidity
    00:00 +2°C° 0 mm 2 mps 741 mmHg 92%
    01:00 +1°C° 0 mm 2 mps 741 mmHg 92%
    02:00 +1°C° 0 mm 2 mps 740 mmHg 92%
    03:00 -1°C° 0 mm 2 mps 740 mmHg 93%
    04:00 0°C° 0 mm 1 mps 740 mmHg 93%
    05:00 +2°C° 0 mm 1 mps 740 mmHg 89%
    06:00 +4°C° 0 mm 1 mps 740 mmHg 85%
    07:00 +6°C° 0 mm 1 mps 740 mmHg 80%
    08:00 +7°C° 0 mm 1 mps 740 mmHg 75%
    09:00 +9°C° 0 mm 1 mps 739 mmHg 69%
    10:00 +11°C° 0 mm 1 mps 739 mmHg 63%
    11:00 +12°C° 0 mm 1 mps 738 mmHg 61%
    12:00 +13°C° 0 mm 2 mps 738 mmHg 58%
    13:00 +14°C° 0 mm 2 mps 737 mmHg 56%
    14:00 +14°C° 0 mm 2 mps 736 mmHg 57%
    15:00 +15°C° 0 mm 2 mps 736 mmHg 58%
    16:00 +15°C° 0 mm 2 mps 735 mmHg 59%
    17:00 +13°C° 0 mm 2 mps 735 mmHg 69%
    18:00 +9°C° 0 mm 2 mps 734 mmHg 80%
    19:00 +7°C° 0 mm 2 mps 734 mmHg 90%
    20:00 +6°C° 0 mm 2 mps 734 mmHg 91%
    21:00 +6°C° 0 mm 2 mps 733 mmHg 92%
    22:00 +5°C° 0 mm 2 mps 733 mmHg 93%
    23:00 +5°C° 0 mm 2 mps 733 mmHg 92%

    Day after tomorrow, 25 April, Tuesday

    Time Temperature Precipitation Wind Pressure Humidity
    00:00 +5°C° 0 mm 2 mps 733 mmHg 92%
    01:00 +5°C° 0 mm 2 mps 732 mmHg 92%
    02:00 +5°C° 0 mm 2 mps 732 mmHg 91%
    03:00 +5°C° 0 mm 2 mps 731 mmHg 90%
    04:00 +5°C° 0 mm 2 mps 731 mmHg 89%
    05:00 +7°C° 0 mm 1 mps 731 mmHg 85%
    06:00 +9°C° 0 mm 1 mps 731 mmHg 81%
    07:00 +10°C° 0 mm 1 mps 731 mmHg 77%
    08:00 +12°C° 0 mm 2 mps 730 mmHg 73%
    09:00 +13°C° 0 mm 2 mps 730 mmHg 70%
    10:00 +14°C° 0 mm 3 mps 730 mmHg 66%
    11:00 +16°C° 0 mm 3 mps 730 mmHg 63%
    12:00 +17°C° 0 mm 2 mps 730 mmHg 60%
    13:00 +19°C° 0 mm 2 mps 729 mmHg 57%
    14:00 +19°C° 0.1 mm 2 mps 729 mmHg 58%
    15:00 +18°C° 0.1 mm 2 mps 728 mmHg 59%
    16:00 +18°C° 0.1 mm 2 mps 728 mmHg 60%
    17:00 +16°C° 0.6 mm 3 mps 728 mmHg 70%
    18:00 +13°C° 0.6 mm 3 mps 728 mmHg 81%
    19:00 +11°C° 0.6 mm 3 mps 728 mmHg 91%
    20:00 +10°C° 0.7 mm 3 mps 729 mmHg 92%
    21:00 +9°C° 0.7 mm 3 mps 729 mmHg 93%
    22:00 +9°C° 0.7 mm 2 mps 730 mmHg 95%
    23:00 +8°C° 0.4 mm 2 mps 730 mmHg 95%

    26 April, Wednesday

    Time Temperature Precipitation Wind Pressure Humidity
    00:00 +8°C° 0.4 mm 2 mps 730 mmHg 95%
    01:00 +9°C° 0.4 mm 1 mps 730 mmHg 96%
    02:00 +9°C° 0.7 mm 1 mps 730 mmHg 96%
    03:00 +8°C° 0.7 mm 1 mps 730 mmHg 97%
    04:00 +8°C° 0.7 mm 1 mps 730 mmHg 97%
    05:00 +7°C° 1 mm 1 mps 730 mmHg 97%
    06:00 +7°C° 1 mm 1 mps 730 mmHg 96%
    07:00 +6°C° 1 mm 2 mps 730 mmHg 96%
    08:00 +6°C° 1 mm 2 mps 731 mmHg 95%
    09:00 +6°C° 1 mm 2 mps 731 mmHg 95%
    10:00 +6°C° 1 mm 2 mps 731 mmHg 94%
    11:00 +6°C° 0.8 mm 2 mps 730 mmHg 94%
    12:00 +6°C° 0.8 mm 2 mps 730 mmHg 94%
    13:00 +6°C° 0.8 mm 2 mps 730 mmHg 95%
    14:00 +6°C° 0.9 mm 2 mps 730 mmHg 95%
    15:00 +6°C° 0.9 mm 2 mps 730 mmHg 96%
    16:00 +6°C° 0.9 mm 2 mps 730 mmHg 96%
    17:00 +5°C° 1.1 mm 2 mps 730 mmHg 96%
    18:00 +4°C° 1.1 mm 3 mps 730 mmHg 97%
    19:00 +4°C° 1.1 mm 3 mps 730 mmHg 97%
    20:00 +3°C° 0.5 mm 3 mps 730 mmHg 97%
    21:00 +4°C° 0.5 mm 2 mps 731 mmHg 97%
    22:00 +4°C° 0.5 mm 2 mps 731 mmHg 97%
    23:00 +4°C° 0.4 mm 2 mps 731 mmHg 97%

    27 April, Thursday

    Time Temperature Precipitation Wind Pressure Humidity
    00:00 +3°C° 0.4 mm 2 mps 731 mmHg 97%
    01:00 +3°C° 0.4 mm 2 mps 731 mmHg 97%
    02:00 +3°C° 0.3 mm 2 mps 731 mmHg 97%
    03:00 +3°C° 0.3 mm 2 mps 730 mmHg 97%
    04:00 +3°C° 0.3 mm 2 mps 730 mmHg 97%
    05:00 +3°C° 0.5 mm 2 mps 731 mmHg 97%
    06:00 +3°C° 0.5 mm 2 mps 731 mmHg 97%
    07:00 +3°C° 0.5 mm 2 mps 731 mmHg 96%
    08:00 +4°C° 0.4 mm 2 mps 731 mmHg 96%
    09:00 +4°C° 0.4 mm 2 mps 731 mmHg 95%
    10:00 +4°C° 0.4 mm 2 mps 732 mmHg 95%
    11:00 +5°C° 0.2 mm 2 mps 731 mmHg 94%
    12:00 +5°C° 0.2 mm 2 mps 731 mmHg 93%
    13:00 +6°C° 0.2 mm 2 mps 731 mmHg 92%
    14:00 +6°C° 0.6 mm 2 mps 731 mmHg 93%
    15:00 +5°C° 0.6 mm 2 mps 731 mmHg 94%
    16:00 +5°C° 0.6 mm 2 mps 731 mmHg 95%
    17:00 +5°C° 0.9 mm 2 mps 732 mmHg 96%
    18:00 +3°C° 0.9 mm 3 mps 732 mmHg 96%
    19:00 +3°C° 0.9 mm 3 mps 732 mmHg 97%
    20:00 +3°C° 0.8 mm 3 mps 733 mmHg 97%
    21:00 +3°C° 0.8 mm 3 mps 733 mmHg 97%
    22:00 +2°C° 0.8 mm 3 mps 734 mmHg 97%
    23:00 +2°C° 0.8 mm 3 mps 734 mmHg 97%

    28 April, Friday

    Time Temperature Precipitation Wind Pressure Humidity
    00:00 +2°C° 0.8 mm 3 mps 734 mmHg 97%
    01:00 +3°C° 0.8 mm 2 mps 733 mmHg 97%
    02:00 +3°C° 0.3 mm 2 mps 734 mmHg 97%
    03:00 +2°C° 0.3 mm 3 mps 734 mmHg 97%
    04:00 +2°C° 0.3 mm 3 mps 734 mmHg 96%
    05:00 +2°C° 0.2 mm 3 mps 734 mmHg 96%
    06:00 +2°C° 0.2 mm 3 mps 734 mmHg 96%
    07:00 +2°C° 0.2 mm 3 mps 734 mmHg 95%
    08:00 +3°C° 0.1 mm 3 mps 734 mmHg 94%
    09:00 +4°C° 0.1 mm 3 mps 734 mmHg 93%
    10:00 +4°C° 0.1 mm 4 mps 734 mmHg 92%
    11:00 +5°C° 0.2 mm 4 mps 734 mmHg 91%
    12:00 +5°C° 0.2 mm 4 mps 734 mmHg 91%
    13:00 +6°C° 0.2 mm 4 mps 734 mmHg 90%
    14:00 +6°C° 0.5 mm 4 mps 734 mmHg 90%
    15:00 +7°C° 0.5 mm 3 mps 735 mmHg 90%
    16:00 +7°C° 0.5 mm 3 mps 735 mmHg 90%
    17:00 +5°C° 0.4 mm 3 mps 735 mmHg 91%
    18:00 +5°C° 0.4 mm 3 mps 735 mmHg 92%
    19:00 +5°C° 0.4 mm 2 mps 736 mmHg 93%
    20:00 +4°C° 0.1 mm 2 mps 736 mmHg 93%
    21:00 +3°C° 0.1 mm 2 mps 736 mmHg 92%
    22:00 +3°C° 0.1 mm 2 mps 736 mmHg 92%
    23:00 +2°C° 0 mm 2 mps 736 mmHg 92%
    Show more